Hoolehua, HI

1:37 AM HST on February 27, 2017 (GMT -1000)
Molokai

Weather History for PHMK - May, 2013

Change the Weather History Date:

Friday, May 3, 2013

  Actual Average Record
Temperature  
Mean Temperature 70 °F -  
Max Temperature 78 °F 80 °F 85 °F (1988)
Min Temperature 62 °F 66 °F 60 °F (1987)
Cooling Degree Days 5    
Growing Degree Days 20 (Base 50)    
Moisture  
Dew Point 62 °F    
Average Humidity 77    
Maximum Humidity 93    
Minimum Humidity 56    
Precipitation  
Precipitation 0.00 in - - ()
Sea Level Pressure  
Sea Level Pressure 30.06 in    
Wind  
Wind Speed 3 mph (South)    
Max Wind Speed 13 mph    
Max Gust Speed 16 mph    
Visibility 10 miles    
Events      
Averages and records for this station are not official NWS values.
T = Trace of Precipitation, MM = Missing Value Source: NWS Daily Summary

Daily Weather History Graph

Daily Weather History Graph

Search for Another Location

Airport or City:

Trip Planner

Search our weather history database for the weather conditions in past years. The results will help you decide how hot, cold, wet, or windy it might be!

Date:

Astronomy

May. 03, 2013 Rise Set
Actual Time 5:56 AM HST 6:54 PM HST
Civil Twilight 5:32 AM HST 7:17 PM HST
Nautical Twilight 5:05 AM HST 7:45 PM HST
Astronomical Twilight 4:37 AM HST 8:13 PM HST
Moon 1:41 AM HST (5/3) 1:43 PM HST (5/3)
Length of Visible Light 13h 44m
Length of Day
12h 58m
Waning Crescent, 34% of the Moon is Illuminated
May 3
Waning Crescent
May 9
New
May 17
First Quarter
May 24
Full
May 31
Last Quarter

Hourly Weather History & Observations

Time (HST) Temp. Dew Point Humidity Pressure Visibility Wind Dir Wind Speed Gust Speed Precip Events Conditions
12:54 AM 64.9 °F 59.0 °F 81% 30.08 in 10.0 mi Calm Calm - N/A   Clear
1:54 AM 64.9 °F 61.0 °F 87% 30.07 in 10.0 mi ENE 3.5 mph - N/A   Clear
2:54 AM 64.9 °F 61.0 °F 87% 30.06 in 10.0 mi Calm Calm - N/A   Mostly Cloudy
3:54 AM 64.9 °F 61.0 °F 87% 30.06 in 10.0 mi Calm Calm - N/A   Clear
4:54 AM 63.0 °F 61.0 °F 93% 30.06 in 10.0 mi Calm Calm - N/A   Clear
5:54 AM 62.1 °F 60.1 °F 93% 30.08 in 10.0 mi Calm Calm - N/A   Clear
6:54 AM 66.0 °F 63.0 °F 90% 30.09 in 10.0 mi Calm Calm - N/A   Partly Cloudy
7:54 AM 73.0 °F 63.0 °F 71% 30.10 in 10.0 mi Calm Calm - N/A   Clear
8:54 AM 75.0 °F 61.0 °F 62% 30.10 in 10.0 mi SSW 3.5 mph - N/A   Mostly Cloudy
9:54 AM 75.0 °F 63.0 °F 66% 30.10 in 10.0 mi SSW 4.6 mph - N/A   Scattered Clouds
10:54 AM 75.0 °F 63.0 °F 66% 30.09 in 10.0 mi SSW 4.6 mph - 0.00 in   Scattered Clouds
11:54 AM 77.0 °F 62.1 °F 60% 30.07 in 10.0 mi NNE 6.9 mph - N/A   Scattered Clouds
12:54 PM 75.9 °F 63.0 °F 64% 30.05 in 10.0 mi West 10.4 mph 16.1 mph N/A   Scattered Clouds
1:54 PM 78.1 °F 61.0 °F 56% 30.03 in 10.0 mi SSW 5.8 mph - N/A   Scattered Clouds
2:54 PM 77.0 °F 63.0 °F 62% 30.02 in 10.0 mi South 12.7 mph - N/A   Scattered Clouds
3:54 PM 75.9 °F 64.0 °F 67% 30.02 in 10.0 mi SSE 8.1 mph - N/A   Mostly Cloudy
4:54 PM 75.0 °F 63.0 °F 66% 30.02 in 10.0 mi South 8.1 mph - N/A   Scattered Clouds
5:54 PM 73.9 °F 64.9 °F 73% 30.03 in 10.0 mi South 6.9 mph - N/A   Mostly Cloudy
6:54 PM 73.0 °F 64.0 °F 73% 30.04 in 10.0 mi South 4.6 mph - N/A   Mostly Cloudy
7:54 PM 71.1 °F 64.9 °F 81% 30.05 in 10.0 mi South 3.5 mph - N/A   Scattered Clouds
8:54 PM 68.0 °F 63.0 °F 84% 30.06 in 10.0 mi Calm Calm - N/A   Clear
9:54 PM 64.9 °F 62.1 °F 90% 30.07 in 10.0 mi Calm Calm - N/A   Clear
10:54 PM 64.9 °F 63.0 °F 93% 30.07 in 10.0 mi Calm Calm - N/A   Clear
11:54 PM 64.9 °F 63.0 °F 93% 30.06 in 10.0 mi Calm Calm - N/A   Clear